Weather History for Batna, Algeria

Change the Weather History Date:

Wednesday, February 13, 2013

  Actual Average Record
Temperature  
Mean Temperature 36 °F -  
Max Temperature 44 °F - - ()
Min Temperature 28 °F - - ()
Degree Days  
Heating Degree Days 29    
Moisture  
Dew Point 32 °F    
Average Humidity 80    
Maximum Humidity 93    
Minimum Humidity 52    
Precipitation  
Precipitation 0.00 in - - ()
Sea Level Pressure  
Sea Level Pressure 29.96 in    
Wind  
Wind Speed 14 mph ()    
Max Wind Speed 26 mph    
Max Gust Speed -    
Visibility 6.2 miles    
Events Rain    
T = Trace of Precipitation, MM = Missing Value Source: Averaged Metar Reports

Daily Weather History Graph

Daily Weather History Graph

Search for Another Location

Airport:

Trip Planner

Search our weather history database for the weather conditions in past years. The results will help you decide how hot, cold, wet, or windy it might be!

Date:

Astronomy

Feb. 13, 2013 Rise Set
Actual Time 7:23 AM CET 6:14 PM CET
Civil Twilight 6:57 AM CET 6:40 PM CET
Nautical Twilight 6:27 AM CET 7:10 PM CET
Astronomical Twilight 5:57 AM CET 7:40 PM CET
Moon 8:53 AM CET (2/13) 9:51 PM CET (2/13)
Length of Visible Light 11h 43m
Length of Day
10h 50m
Waxing Crescent, 12% of the Moon is Illuminated
Feb 13
Waxing Crescent
Feb 17
First Quarter
Feb 25
Full
Mar 4
Last Quarter
Mar 11
New

Hourly Weather History & Observations

Time (CET) Temp. Windchill Dew Point Humidity Pressure Visibility Wind Dir Wind Speed Gust Speed Precip Events Conditions
1:00 AM 35 °F - 32 °F 86%  in 6 mi WSW 16.1 mph - -  
1:00 AM 35.6 °F 25.9 °F 32.0 °F 87% 29.89 in 6.2 mi WSW 16.1 mph - N/A   Mostly Cloudy
2:00 AM 33.8 °F 22.5 °F 32.0 °F 93% 29.89 in 6.2 mi West 19.6 mph - N/A   Scattered Clouds
3:00 AM 33.8 °F 21.9 °F 32.0 °F 93% 29.92 in 6.2 mi West 21.9 mph - N/A   Scattered Clouds
4:00 AM 32 °F - 29 °F 84%  in 6 mi NNW 11.5 mph - -   Partly Cloudy
4:00 AM 32.0 °F 23.0 °F 28.4 °F 87% 29.95 in 6.2 mi NNW 11.5 mph - N/A   Scattered Clouds
5:00 AM 35.6 °F 25.2 °F 32.0 °F 87% 29.95 in 6.2 mi SW 18.4 mph - N/A   Mostly Cloudy
6:00 AM 30.2 °F 21.9 °F 28.4 °F 93% 29.95 in 6.2 mi West 9.2 mph - N/A   Scattered Clouds
7:00 AM 29 °F - 26 °F 83%  in 6 mi SSE 6.9 mph - -   Partly Cloudy
7:00 AM 28.4 °F 21.2 °F 26.6 °F 93% 29.98 in 6.2 mi SSE 6.9 mph - N/A   Scattered Clouds
8:00 AM 28.4 °F 21.2 °F 26.6 °F 93% 29.98 in 6.2 mi South 6.9 mph - N/A   Scattered Clouds
9:00 AM 33.8 °F 27.7 °F 26.6 °F 75% 29.98 in 6.2 mi NE 6.9 mph - N/A   Scattered Clouds
10:00 AM 40 °F - 29 °F 52%  in 9 mi NW 6.9 mph - -   Partly Cloudy
10:00 AM 39.2 °F 34.2 °F 28.4 °F 65% 29.95 in 6.2 mi NW 6.9 mph - N/A   Scattered Clouds
11:00 AM 44.6 °F 35.7 °F 30.2 °F 57% 29.95 in 6.2 mi West 24.2 mph - N/A   Scattered Clouds
12:00 PM 44.6 °F 36.4 °F 33.8 °F 66% 29.98 in 6.2 mi West 20.7 mph - N/A   Scattered Clouds
1:00 PM 44 °F - 35 °F 59%  in 6 mi West 26.5 mph - -   Mostly Cloudy
1:00 PM 44.6 °F 35.3 °F 33.8 °F 66% 29.95 in 6.2 mi West 26.5 mph - N/A   Scattered Clouds
2:00 PM 44.6 °F 36.9 °F 35.6 °F 71% 29.95 in 6.2 mi West 18.4 mph - N/A   Scattered Clouds
3:00 PM 41.0 °F 32.8 °F 37.4 °F 87% 29.95 in 6.2 mi NNW 16.1 mph - N/A Rain Light Rain
4:00 PM 42 °F - 36 °F 74%  in 6 mi NW 20.7 mph - - Rain Light Rain
4:00 PM 42.8 °F 34.0 °F 37.4 °F 81% 29.95 in 6.2 mi NW 20.7 mph - N/A   Scattered Clouds
5:00 PM 42.8 °F 35.1 °F 35.6 °F 76% 29.95 in 6.2 mi NW 16.1 mph - N/A   Scattered Clouds
6:00 PM 41.0 °F 32.8 °F 35.6 °F 81% 29.95 in 6.2 mi WNW 16.1 mph - N/A   Mostly Cloudy
7:00 PM 40 °F - 35 °F 75%  in 6 mi WNW 19.6 mph - -   Partly Cloudy
7:00 PM 39.2 °F 29.6 °F 35.6 °F 87% 29.98 in 6.2 mi WNW 19.6 mph - N/A   Mostly Cloudy
8:00 PM 37.4 °F 27.2 °F 33.8 °F 87% 29.98 in 6.2 mi WNW 19.6 mph - N/A   Mostly Cloudy
9:00 PM 37.4 °F 28.2 °F 33.8 °F 87% 29.98 in 6.2 mi WNW 16.1 mph - N/A   Mostly Cloudy
10:00 PM 37 °F - 34 °F 84%  in 6 mi WNW 13.8 mph - -   Mostly Cloudy
10:00 PM 37.4 °F 28.9 °F 33.8 °F 87% 30.04 in 6.2 mi WNW 13.8 mph - N/A   Mostly Cloudy
11:00 PM 37.4 °F 27.5 °F 35.6 °F 93% 30.04 in 5.0 mi WNW 18.4 mph - N/A Rain Light Rain